Stations météo

réclame
Mon MeteoGroup
Kvikkjokk Arrenjarka A, Suède (2119): Température de l'air & dewpoint: 14.10.2018 04:00:00 - 20.10.2018 04:00:00 (CEST)Kvikkjokk Arrenjarka A, Suède (2119): Vitesse du vent & gusts: 14.10.2018 04:00:00 - 20.10.2018 04:00:00 (CEST)Kvikkjokk Arrenjarka A, Suède (2119): Direction du vent: 14.10.2018 04:00:00 - 20.10.2018 04:00:00 (CEST)Kvikkjokk Arrenjarka A, Suède (2119): reduced air pressure: 14.10.2018 04:00:00 - 20.10.2018 04:00:00 (CEST)Kvikkjokk Arrenjarka A, Suède (2119): visibility: 14.10.2018 04:00:00 - 20.10.2018 04:00:00 (CEST)Kvikkjokk Arrenjarka A, Suède (2119): Quantités de précipitations: 14.10.2018 04:00:00 - 20.10.2018 04:00:00 (CEST)
Date & Time tt [°C] td [°C] ff [km/h] ff [knt] fx [km/h] fx [knt] dd ppp [hPa] vv [km] rr [mm]
20.10.2018 04:00:00 0,4 -2,5 0 0 0 0 N - 49 0,0
20.10.2018 03:00:00 0,4 -2,5 0 0 0 0 N - 50 0,0
20.10.2018 02:00:00 0,6 -2,5 0 0 0 0 N - 35 0,1
20.10.2018 01:00:00 0,6 -2,5 0 0 0 0 N - 16 0,0
20.10.2018 00:00:00 0,3 -3,1 0 0 0 0 N - 50 0,0
19.10.2018 23:00:00 -0,4 -3,6 0 0 0 0 N - 50 0,0
19.10.2018 22:00:00 -1,7 -4,4 0 0 0 0 N - 50 0,0
19.10.2018 21:00:00 -1,5 -4,3 0 0 0 0 N - 50 0,0
19.10.2018 20:00:00 -1,2 -4,2 0 0 0 0 N - 50 0,0
19.10.2018 19:00:00 -1,0 -4,3 0 0 0 0 N - 50 0,0
19.10.2018 18:00:00 2,5 -3,4 0 0 0 0 N - 50 0,0
19.10.2018 17:00:00 5,1 -2,5 0 0 0 0 N - 50 0,0
19.10.2018 16:00:00 7,2 -1,5 0 0 0 0 N - 50 0,0
19.10.2018 15:00:00 8,3 -0,5 0 0 0 0 N - 50 0,0
19.10.2018 14:00:00 - - - - 0 0 - - - -
19.10.2018 13:00:00 8,7 -0,6 0 0 0 0 N - 50 0,0
19.10.2018 12:00:00 9,2 -0,4 0 0 0 0 N - 50 0,0
19.10.2018 11:00:00 8,8 0,0 0 0 32 17 N - 50 0,0
19.10.2018 10:00:00 7,6 -0,1 0 0 32 17 N - 50 -
19.10.2018 09:00:00 7,2 0,2 12 6 25 13 W 1010,1 50 0,0
19.10.2018 08:00:00 6,5 0,4 9 5 23 12 SW 1009,5 50 0,0
19.10.2018 07:00:00 6,2 -0,5 3 2 23 12 WSW 1008,7 50 0,0
19.10.2018 06:00:00 7,4 0,6 10 5 21 11 W 1007,5 50 0,0
19.10.2018 05:00:00 4,9 -0,7 6 3 16 9 W 1007,0 50 0,0
19.10.2018 04:00:00 3,9 -2,1 7 4 35 19 S 1006,3 50 0,0
19.10.2018 03:00:00 7,0 -0,5 9 5 40 22 W 1005,0 50 0,0
19.10.2018 02:00:00 6,7 -0,5 13 7 40 22 WNW 1004,3 50 0,0
19.10.2018 01:00:00 7,3 0,0 13 7 35 19 W 1003,9 50 0,0
19.10.2018 00:00:00 7,3 0,0 16 9 39 21 WSW 1003,7 50 0,0
18.10.2018 23:00:00 6,9 0,1 18 10 39 21 W 1003,2 50 0,0
18.10.2018 22:00:00 6,5 0,0 14 7 28 15 WSW 1002,8 50 0,0
18.10.2018 21:00:00 5,7 0,1 10 5 19 10 WSW 1002,8 50 0,0
18.10.2018 20:00:00 5,1 -0,7 5 3 18 10 W 1002,8 50 0,0
18.10.2018 19:00:00 4,9 -0,5 6 4 15 8 W 1002,6 50 0,0
18.10.2018 18:00:00 2,8 -1,6 4 2 24 13 SW 1003,0 50 0,0
18.10.2018 17:00:00 5,8 -0,1 10 5 24 13 SSW 1002,8 50 0,0
18.10.2018 16:00:00 6,3 -0,7 7 4 - - SW 1003,0 50 -
18.10.2018 15:00:00 6,5 -1,2 7 4 29 15 SSW 1003,2 50 0,0
18.10.2018 14:00:00 7,8 -1,2 10 6 28 15 SW 1003,2 50 0,0
18.10.2018 13:00:00 6,4 -0,8 9 5 27 14 SSW 1004,0 50 0,0
18.10.2018 12:00:00 7,5 -1,0 7 4 21 12 SW 1004,2 50 0,0
18.10.2018 11:00:00 6,2 -0,3 6 3 17 9 WSW 1004,7 50 0,0
18.10.2018 10:00:00 3,9 0,2 3 2 11 6 WNW 1005,3 50 0,0
18.10.2018 09:00:00 1,3 -0,9 4 2 12 6 SW 1005,8 50 0,0
18.10.2018 08:00:00 0,8 -1,6 6 3 12 6 WNW 1005,5 50 0,0
18.10.2018 07:00:00 -1,2 -3,4 4 2 8 5 WSW 1005,7 50 0,0
18.10.2018 06:00:00 -2,1 -4,6 5 3 14 8 NW 1006,1 50 0,0
18.10.2018 05:00:00 -1,1 -3,6 5 3 14 8 W 1006,3 47 0,0
18.10.2018 04:00:00 -3,2 -5,8 6 3 12 7 W 1006,7 50 0,0
18.10.2018 03:00:00 -3,3 -5,8 6 4 12 7 NW 1006,4 50 0,0
18.10.2018 02:00:00 -3,0 -5,6 6 3 12 6 NNW 1006,8 50 0,0
18.10.2018 01:00:00 -1,7 -3,9 5 3 13 7 NNW 1006,9 50 0,0
18.10.2018 00:00:00 -1,4 -3,9 4 2 13 7 N 1007,0 50 0,0
17.10.2018 23:00:00 -1,8 -4,6 3 2 11 6 N 1007,3 50 0,0
17.10.2018 22:00:00 -1,3 -3,5 6 3 9 5 NNW 1007,2 50 0,0
17.10.2018 21:00:00 -0,8 -3,3 4 2 10 6 NW 1007,2 50 0,0
17.10.2018 20:00:00 -1,0 -3,5 3 2 13 7 NW 1007,1 50 0,0
17.10.2018 19:00:00 -1,4 -3,9 6 4 13 7 NW 1007,4 50 0,0
17.10.2018 18:00:00 -1,0 -3,8 4 2 7 4 NW 1007,5 50 0,0
17.10.2018 17:00:00 2,6 -1,0 3 1 8 4 W 1007,8 50 0,0
17.10.2018 16:00:00 4,1 0,4 4 2 8 4 NNW 1007,8 44 0,0
17.10.2018 15:00:00 4,2 0,2 0 0 6 3 N 1008,3 50 0,0
17.10.2018 14:00:00 3,6 -0,4 0 0 6 3 N 1008,7 50 0,0
17.10.2018 13:00:00 3,3 -0,3 2 1 6 3 S 1009,2 50 0,0
17.10.2018 12:00:00 2,4 -0,4 4 2 7 4 NNE 1009,5 50 0,0
17.10.2018 11:00:00 1,9 -1,0 3 2 17 9 NNW 1010,6 50 0,0
17.10.2018 10:00:00 1,5 -1,1 4 2 17 9 NNW 1010,2 50 0,0
17.10.2018 09:00:00 0,7 -2,2 2 1 9 5 E 1011,0 50 0,0
17.10.2018 08:00:00 0,5 -2,7 2 1 15 8 NNW 1011,4 41 0,0
17.10.2018 07:00:00 1,3 -1,4 6 3 15 8 NE 1011,5 50 0,0
17.10.2018 06:00:00 0,1 -2,8 3 2 12 7 N 1012,1 50 0,0
17.10.2018 05:00:00 1,7 -1,4 4 2 12 7 NNE 1012,4 50 0,0
17.10.2018 04:00:00 0,7 -2,4 3 2 10 6 NNW 1013,5 50 0,0
17.10.2018 03:00:00 0,6 -2,5 4 2 10 6 N 1013,8 50 0,0
17.10.2018 02:00:00 -0,9 -3,9 0 0 12 6 N 1014,9 50 0,0
17.10.2018 01:00:00 -0,7 -3,9 2 1 12 6 NNW 1015,6 50 0,0
17.10.2018 00:00:00 -1,2 -4,0 4 2 12 6 NNW 1015,6 50 0,0
16.10.2018 23:00:00 -1,1 -3,9 5 3 14 8 N 1016,1 50 0,0
16.10.2018 22:00:00 -1,9 -4,7 6 3 14 8 NW 1016,8 50 0,0
16.10.2018 21:00:00 -1,6 -4,1 7 4 12 6 NNW 1016,7 50 0,0
16.10.2018 20:00:00 -1,0 -4,2 5 3 7 4 NW 1016,7 50 0,0
16.10.2018 19:00:00 0,4 -3,2 4 2 8 4 W 1016,2 50 0,0
16.10.2018 18:00:00 0,1 -3,5 5 3 22 12 NW 1016,0 50 0,0
16.10.2018 17:00:00 2,8 -3,1 3 2 22 12 W 1015,6 50 0,0
16.10.2018 16:00:00 6,7 -2,2 9 5 28 15 W 1014,5 50 0,0
16.10.2018 15:00:00 7,3 -1,9 8 4 28 15 SW 1014,1 50 0,0
16.10.2018 14:00:00 7,4 -1,6 8 4 27 14 W 1013,8 50 0,0
16.10.2018 13:00:00 7,7 -2,1 9 5 24 13 SW 1013,4 50 0,0
16.10.2018 12:00:00 5,6 -0,9 4 2 9 5 NW 1013,2 50 0,0
16.10.2018 11:00:00 2,3 -1,0 3 1 7 4 W 1013,1 50 0,0
16.10.2018 10:00:00 -0,7 -3,2 2 1 10 5 SW 1012,9 50 0,0
16.10.2018 09:00:00 -3,7 -6,3 5 3 10 5 NNW 1012,7 50 0,0
16.10.2018 08:00:00 -3,9 -6,5 6 3 9 5 NW 1012,5 50 0,0
16.10.2018 07:00:00 -5,3 -8,0 3 1 9 5 NW 1012,2 50 0,0
16.10.2018 06:00:00 -4,9 -7,7 5 3 10 6 NW 1012,2 50 0,0
16.10.2018 05:00:00 -4,5 -7,4 6 3 10 6 NNW 1012,1 50 0,0
16.10.2018 04:00:00 -3,5 -6,4 4 2 8 5 NW 1012,1 50 0,0
16.10.2018 03:00:00 -3,9 -6,7 4 2 11 6 NW 1012,3 50 0,0
16.10.2018 02:00:00 -3,7 -6,6 5 3 11 6 NW 1012,2 50 0,0
16.10.2018 01:00:00 -3,2 -6,2 4 2 10 5 N 1012,3 50 0,0
16.10.2018 00:00:00 -2,7 -5,2 5 3 10 5 NW 1012,4 50 0,0
15.10.2018 23:00:00 -1,3 -4,1 5 3 10 5 WNW 1012,4 50 0,0
15.10.2018 22:00:00 -1,1 -3,6 6 4 13 7 NW 1012,6 50 0,0
15.10.2018 21:00:00 -1,4 -3,9 6 4 16 8 NW 1012,6 50 0,0
15.10.2018 20:00:00 -0,3 -3,5 6 4 16 8 NW 1012,9 50 0,0
15.10.2018 19:00:00 0,2 -3,0 5 3 11 6 NW 1012,8 50 0,0
15.10.2018 18:00:00 2,1 -1,5 6 4 14 8 NW 1012,8 50 0,0
15.10.2018 17:00:00 4,8 -1,6 3 2 15 8 ENE 1012,4 50 0,0
15.10.2018 16:00:00 6,9 -1,8 2 1 16 9 SW 1012,0 50 0,0
15.10.2018 15:00:00 7,6 -0,6 8 5 21 12 WSW 1011,7 50 0,0
15.10.2018 14:00:00 8,2 -0,8 9 5 24 13 W 1011,4 50 0,0
15.10.2018 13:00:00 8,2 -0,3 9 5 27 15 SW 1010,9 50 0,0
15.10.2018 12:00:00 8,4 0,6 11 6 30 16 WSW 1010,3 50 0,0
15.10.2018 11:00:00 8,3 0,0 7 4 38 21 WNW 1009,4 50 0,0
15.10.2018 10:00:00 7,1 -0,1 9 5 39 21 W 1008,5 50 0,0
15.10.2018 09:00:00 6,0 -1,0 5 3 40 22 WNW 1007,3 50 0,0
15.10.2018 08:00:00 6,4 -0,4 15 8 40 22 W 1005,6 50 0,0
15.10.2018 07:00:00 7,1 0,3 8 5 28 15 WSW 1004,4 50 0,0
15.10.2018 06:00:00 7,2 1,7 12 7 28 15 W 1003,3 50 0,0
15.10.2018 05:00:00 8,1 3,9 9 5 26 14 W 1001,8 43 0,0
15.10.2018 04:00:00 10,0 5,6 13 7 25 14 WSW 1000,2 50 0,0
15.10.2018 03:00:00 8,1 5,7 5 3 9 5 SW 999,8 10 0,0
15.10.2018 02:00:00 8,2 5,3 3 1 11 6 N 999,6 17 0,0
15.10.2018 01:00:00 8,6 6,0 3 1 11 6 WNW 999,5 20 0,0
15.10.2018 00:00:00 8,4 5,9 2 1 6 4 NNW 999,5 11 0,0
14.10.2018 23:00:00 8,1 5,7 0 0 22 12 N 999,1 6 0,0
14.10.2018 22:00:00 8,5 6,3 6 3 22 12 WSW 999,6 50 0,0
14.10.2018 21:00:00 7,8 5,8 5 3 17 9 WSW 999,6 46 0,0
14.10.2018 20:00:00 7,3 5,4 3 2 11 6 NNE 999,8 14 0,0
14.10.2018 19:00:00 6,9 4,9 2 1 8 4 E 1000,4 2,1 0,1
14.10.2018 18:00:00 7,2 5,0 3 2 7 4 NNW 1001,3 6 0,0
14.10.2018 17:00:00 7,0 4,7 2 1 4 2 WNW 1001,7 1,7 0,0
14.10.2018 16:00:00 7,0 4,5 2 1 6 4 ESE 1002,5 0,5 0,0
14.10.2018 15:00:00 6,9 4,9 3 2 6 4 SSE 1003,1 1,1 0,0
14.10.2018 14:00:00 6,8 4,6 2 1 5 3 SSW 1003,2 0,6 0,0
14.10.2018 13:00:00 6,5 4,2 0 0 5 3 N 1003,9 0,8 0,0
14.10.2018 12:00:00 6,6 4,3 0 0 5 3 N 1003,8 1,6 0,0
14.10.2018 11:00:00 6,2 3,2 0 0 6 3 N 1004,1 1,0 0,0
14.10.2018 10:00:00 5,9 3,4 2 1 6 4 S 1004,2 0,8 0,0
14.10.2018 09:00:00 5,7 3,0 3 2 6 4 NW 1004,4 8 0,0
14.10.2018 08:00:00 5,4 2,6 0 0 5 3 N 1004,8 3,2 0,0
14.10.2018 07:00:00 5,5 2,8 2 1 7 4 W 1005,1 2,7 0,0
14.10.2018 06:00:00 5,4 2,6 2 1 7 4 SE 1005,6 4,2 0,0
14.10.2018 05:00:00 5,3 3,1 4 2 6 3 NW 1005,9 4,3 0,2
14.10.2018 04:00:00 5,2 2,4 2 1 6 3 NW 1006,3 4,0 0,5

tt = Température de l'air
td = dewpoint
ff = Vitesse du vent
fx = gusts
dd = Direction du vent
ppp = reduced air pressure
vv = visibility
rr = Quantités de précipitations

stations d'obs. à proximité